{"data":{"norad_id":65825,"epoch":"2026-05-25T03:14:57.081696Z","epoch_age_seconds":57120,"freshness":"FRESH","line1":"1 65825U 25221C   26145.13538289  .00028735  00000+0  85814-3 0  9998","line2":"2 65825  53.1590  92.8343 0001230  89.2213 270.8931 15.34406907 37796","mean_motion":15.34406907,"eccentricity":0.000123,"inclination_deg":53.159,"raan_deg":92.8343,"arg_perigee_deg":89.2213,"mean_anomaly_deg":270.8931,"bstar":0.00085814,"rev_number":3779,"period_min":93.847335633767,"perigee_km":461.84129040005,"apogee_km":463.52413204901,"semimajor_km":6840.8197112245,"source":"CELESTRAK","updated_at":"2026-05-25T13:38:20.941817Z"}}